TimeAKST,TemperatureF,Dew PointF,Humidity,Sea Level PressureIn,VisibilityMPH,Wind Direction,Wind SpeedMPH,Gust SpeedMPH,PrecipitationIn,Events,Conditions,WindDirDegrees,DateUTC
12:19 AM,-52.6,-9999,N/A,30.58,7.0,Calm,Calm,-,N/A,,Scattered Clouds,0,2012-12-22 09:19:00
12:28 AM,-52.6,-9999,N/A,30.58,7.0,Calm,Calm,-,N/A,,Mostly Cloudy,0,2012-12-22 09:28:00
12:53 AM,-52.1,-9999,N/A,30.75,7.0,Calm,Calm,-,N/A,,Scattered Clouds,0,2012-12-22 09:53:00
1:53 AM,-52.1,-9999,N/A,30.74,7.0,Calm,Calm,-,N/A,,Clear,0,2012-12-22 10:53:00
2:10 AM,-52.6,-9999,N/A,30.56,6.0,Calm,Calm,-,N/A,,Haze,0,2012-12-22 11:10:00
2:19 AM,-52.6,-9999,N/A,30.56,6.0,Calm,Calm,-,N/A,,Haze,0,2012-12-22 11:19:00
2:35 AM,-52.6,-9999,N/A,30.56,8.0,Calm,Calm,-,N/A,,Scattered Clouds,0,2012-12-22 11:35:00
3:19 AM,-52.6,-9999,N/A,30.55,7.0,Calm,Calm,-,N/A,,Mostly Cloudy,0,2012-12-22 12:19:00
3:31 AM,-52.6,-9999,N/A,30.55,6.0,Calm,Calm,-,N/A,,Haze,0,2012-12-22 12:31:00
3:48 AM,-52.6,-9999,N/A,30.55,5.0,Calm,Calm,-,N/A,,Haze,0,2012-12-22 12:48:00
3:53 AM,-52.1,-9999,N/A,30.72,6.0,Calm,Calm,-,N/A,,Haze,0,2012-12-22 12:53:00
4:14 AM,-52.6,-9999,N/A,30.54,9.0,Calm,Calm,-,N/A,,Scattered Clouds,0,2012-12-22 13:14:00
4:53 AM,-52.1,-9999,N/A,30.69,9.0,Calm,Calm,-,N/A,,Clear,0,2012-12-22 13:53:00
5:22 AM,-52.6,-9999,N/A,30.52,9.0,Calm,Calm,-,N/A,,Partly Cloudy,0,2012-12-22 14:22:00
5:48 AM,-52.6,-9999,N/A,30.52,7.0,Calm,Calm,-,N/A,,Mostly Cloudy,0,2012-12-22 14:48:00
5:53 AM,-53.0,-9999,N/A,30.69,8.0,Calm,Calm,-,N/A,,Mostly Cloudy,0,2012-12-22 14:53:00
6:01 AM,-52.6,-9999,N/A,30.52,9.0,Calm,Calm,-,N/A,,Scattered Clouds,0,2012-12-22 15:01:00
6:53 AM,-53.0,-9999,N/A,30.67,7.0,Calm,Calm,-,N/A,,Scattered Clouds,0,2012-12-22 15:53:00
7:03 AM,-52.6,-9999,N/A,30.50,8.0,Calm,Calm,-,N/A,,Mostly Cloudy,0,2012-12-22 16:03:00
7:32 AM,-52.6,-9999,N/A,30.50,10.0,Calm,Calm,-,N/A,,Scattered Clouds,0,2012-12-22 16:32:00
7:53 AM,-53.0,-9999,N/A,30.66,9.0,Calm,Calm,-,N/A,,Clear,0,2012-12-22 16:53:00
8:28 AM,-52.6,-9999,N/A,30.48,9.0,Calm,Calm,-,N/A,,Partly Cloudy,0,2012-12-22 17:28:00
8:43 AM,-52.6,-9999,N/A,30.49,8.0,Calm,Calm,-,N/A,,Mostly Cloudy,0,2012-12-22 17:43:00
8:53 AM,-53.0,-9999,N/A,30.66,7.0,Calm,Calm,-,N/A,,Mostly Cloudy,0,2012-12-22 17:53:00
9:07 AM,-52.6,-9999,N/A,30.48,7.0,Calm,Calm,-,N/A,,Scattered Clouds,0,2012-12-22 18:07:00
9:53 AM,-53.0,-9999,N/A,30.65,10.0,Calm,Calm,-,N/A,,Clear,0,2012-12-22 18:53:00
10:53 AM,-52.1,-9999,N/A,30.64,9.0,Calm,Calm,-,N/A,,Clear,0,2012-12-22 19:53:00
11:33 AM,-50.8,-9999,N/A,30.47,10.0,Calm,Calm,-,N/A,,Partly Cloudy,0,2012-12-22 20:33:00
11:53 AM,-51.0,-9999,N/A,30.63,4.0,Calm,Calm,-,N/A,,Haze,0,2012-12-22 20:53:00
12:53 PM,-50.1,-9999,N/A,30.63,8.0,Calm,Calm,-,N/A,,Clear,0,2012-12-22 21:53:00
1:00 PM,-49.0,-9999,N/A,30.46,2.5,Calm,Calm,-,N/A,,Partly Cloudy,0,2012-12-22 22:00:00
1:12 PM,-50.8,-9999,N/A,30.45,4.0,Calm,Calm,-,N/A,,Haze,0,2012-12-22 22:12:00
1:39 PM,-50.8,-9999,N/A,30.44,6.0,Calm,Calm,-,N/A,,Haze,0,2012-12-22 22:39:00
1:53 PM,-50.1,-9999,N/A,30.61,6.0,Calm,Calm,-,N/A,,Haze,0,2012-12-22 22:53:00
2:53 PM,-50.1,-9999,N/A,30.60,4.0,Calm,Calm,-,N/A,,Haze,0,2012-12-22 23:53:00
3:08 PM,-50.8,-9999,N/A,30.42,4.0,Calm,Calm,-,N/A,,Haze,0,2012-12-23 00:08:00
3:53 PM,-50.1,-9999,N/A,30.58,7.0,Calm,Calm,-,N/A,,Scattered Clouds,0,2012-12-23 00:53:00
4:53 PM,-50.1,-9999,N/A,30.57,10.0,Calm,Calm,-,N/A,,Clear,0,2012-12-23 01:53:00
5:53 PM,-50.1,-9999,N/A,30.56,10.0,Calm,Calm,-,N/A,,Clear,0,2012-12-23 02:53:00
6:53 PM,-50.1,-9999,N/A,30.56,10.0,Calm,Calm,-,N/A,,Clear,0,2012-12-23 03:53:00
7:53 PM,-50.1,-9999,N/A,30.54,10.0,Calm,Calm,-,N/A,,Clear,0,2012-12-23 04:53:00
8:53 PM,-50.1,-9999,N/A,30.53,10.0,Calm,Calm,-,N/A,,Clear,0,2012-12-23 05:53:00
9:53 PM,-50.1,-9999,N/A,30.52,10.0,Calm,Calm,-,N/A,,Clear,0,2012-12-23 06:53:00
10:53 PM,-50.1,-9999,N/A,30.51,10.0,Calm,Calm,-,N/A,,Clear,0,2012-12-23 07:53:00
11:53 PM,-50.1,-9999,N/A,30.50,10.0,Calm,Calm,-,N/A,,Clear,0,2012-12-23 08:53:00